Tracking 30995 objects as of 7-Jul-2025
HD Live streaming from Space Station
objects crossing your sky now

GRBALPHA

Track GRBALPHA now!
10-day predictions
GRBALPHA is classified as:


NORAD ID: 47941
Int'l Code: 2021-022K
Perigee: 427.6 km
Apogee: 439.3 km
Inclination: 97.4 °
Period: 93.1 minutes
Semi major axis: 6804 km
RCS: Unknown
Launch date: March 22, 2021
Source: (TBD)
Launch site: TYURATAM MISSILE AND SPACE COMPLEX (TTMTR)

Uplink (MHz):
Downlink (MHz): 435.310
Beacon (MHz):
Mode: 1k2/9k6* FSK
Call sign:
Status: Active


Uplink (MHz):
Downlink (MHz): 435.310
Beacon (MHz):
Mode: 1k2/9k6* FSK
Call sign:
Status: Active

Your satellite tracking list
Your tracking list is empty




NASA's NSSDC Master Catalog

Two Line Element Set (TLE):
1 47941U 21022K   25187.88826353  .00022780  00000-0  45595-3 0  9998
2 47941  97.4202  93.0629 0008648 197.7745 162.3203 15.46731304237414
Source of the keplerian elements: AFSPC